This is the latest recevied weather packets stored in our database for station/object NC4J. If no packets are shown the sender has not sent any weather packets the latest 10 day(s).
| Time | Temp. | Humidity | Pressure | Rain* | Wind** | Luminosity | Snow |
|---|---|---|---|---|---|---|---|
| 1777909022 | 17.78° C | 37% | 1018.5 hPa | 0 mm | - | 57 W/m² | - |
| 1777908720 | 17.78° C | 38% | 1018.5 hPa | 0 mm | - | 55 W/m² | - |
| 1777908416 | 17.78° C | 34% | 1018.7 hPa | 0 mm | - | 54 W/m² | - |
| 1777908113 | 17.78° C | 35% | 1018.7 hPa | 0 mm | - | 67 W/m² | - |
| 1777907809 | 17.22° C | 34% | 1018.8 hPa | 0 mm | - | 47 W/m² | - |
| 1777907504 | 17.22° C | 36% | 1018.9 hPa | 0 mm | - | 45 W/m² | - |
| 1777907201 | 16.67° C | 38% | 1018.9 hPa | 0 mm | - | 81 W/m² | - |
| 1777906898 | 16.67° C | 35% | 1018.9 hPa | 0 mm | - | 41 W/m² | - |
| 1777906596 | 16.11° C | 40% | 1018.9 hPa | 0 mm | - | 233 W/m² | - |
| 1777906291 | 15.56° C | 41% | 1018.9 hPa | 0 mm | - | 56 W/m² | - |
| 1777905988 | 15.56° C | 43% | 1019.1 hPa | 0 mm | - | 42 W/m² | - |
| 1777905685 | 15° C | 43% | 1019.1 hPa | 0 mm | - | 78 W/m² | - |
| 1777905381 | 15° C | 45% | 1019.1 hPa | 0 mm | - | 40 W/m² | - |
| 1777905079 | 14.44° C | 52% | 1018.9 hPa | 0 mm | - | 45 W/m² | - |
| 1777904776 | 13.89° C | 54% | 1019.1 hPa | 0 mm | - | 62 W/m² | - |
| 1777904473 | 13.33° C | 56% | 1019.3 hPa | 0 mm | - | 39 W/m² | - |
| 1777904170 | 12.78° C | 56% | 1019 hPa | 0 mm | - | 41 W/m² | - |
| 1777903867 | 12.78° C | 58% | 1019.1 hPa | 0 mm | - | 45 W/m² | - |
| 1777903564 | 12.78° C | 62% | 1019.1 hPa | 0 mm | - | 61 W/m² | - |
| 1777903259 | 12.22° C | 63% | 1019.3 hPa | 0 mm | - | 37 W/m² | - |
| 1777902956 | 11.67° C | 61% | 1019.3 hPa | 0 mm | - | 66 W/m² | - |
| 1777902653 | 11.67° C | 61% | 1019.1 hPa | 0 mm | - | 70 W/m² | - |
| 1777902350 | 11.11° C | 63% | 1019.1 hPa | 0 mm | - | 41 W/m² | - |
| 1777902047 | 10.56° C | 67% | 1019.1 hPa | 0 mm | - | 32 W/m² | - |
| 1777901746 | 10.56° C | 68% | 1019.1 hPa | 0 mm | - | 33 W/m² | - |
* Rain latest hour (hover to see other rain measurements)
** Current wind speed in m/s (hover to see current wind gust speed)